sat.trackr.live / text

‹ back to catalog

STARLINK-36145

NORAD 66983 · 2025-288AA

PAYLOAD ACTIVE UNKNOWN

§ Identity

Operator
Country
US
Launch date
2025-12-08
Launch site
AFETR
Launch vehicle
Mass (kg)
RCS (m²)

Purposes: comms

External: N2YO · Heavens-Above · Gunter

§ Orbital elements

Epoch: 2026-05-25T04:16:24.943008Z

Period
94.27 min
Inclination
42.9997°
Eccentricity
0.0000507
Mean motion
15.27591856 rev/d
Perigee alt
482.7 km
Apogee alt
483.4 km
Semi-major
6,861.2 km
B*
4.8089e-4
RAAN
311.6295°
Arg perigee
322.0454°
Mean anomaly
38.0362°
Rev number
2,698

§ Raw data

STARLINK-361451 66983U 25288AA  26145.17806647  .00012999  00000+0  48089-3 0  99952 66983  42.9997 311.6295 0000507 322.0454  38.0362 15.27591856 26989

JSON: /api/v1/satellites/66983 · /tle

For live sub-satellite position, see the globe view (requires WebGL).

§ Visibility from observer

Set your observer location to see the next 7 days of passes ≥ 10°. The values pass through the URL so the page stays shareable.

No JS? Fill the form by hand. The geolocation button needs JavaScript.